Tracking 30258 objects as of 19-Feb-2025
HD Live streaming from Space Station
objects crossing your sky now

FLOCK 3S 1

Track FLOCK 3S 1 now!
10-day predictions
FLOCK 3S 1 is classified as:


NORAD ID: 43769
Int'l Code: 2018-099M
Perigee: 440.6 km
Apogee: 450.1 km
Inclination: 97.5 °
Period: 93.3 minutes
Semi major axis: 6816 km
RCS: Unknown
Launch date: December 3, 2018
Source: United States (US)
Launch site: AIR FORCE WESTERN TEST RANGE (AFWTR)
Your satellite tracking list
Your tracking list is empty




NASA's NSSDC Master Catalog

Two Line Element Set (TLE):
1 43769U 18099M   25050.40940177  .00146104  00000-0  32918-2 0  9991
2 43769  97.4591 113.0705 0006971 185.8447 174.2720 15.42684739340316
Source of the keplerian elements: AFSPC